Regional Weather Roundup
Issued by NWS

Home | Current Version | Previous Version | Graphics & Text | Print | Product List | Glossary On
Versions: 1 2 3 4 5 6 7 8 9 10 11 12 13 14 15 16 17 18 19 20 21 22 23 24 25 26 27 28 29 30 31 32 33 34 35 36 37 38 39 40 41 42 43 44 45 46 47 48 49 50
000
ASUS43 KMKX 300400
RWRWI

WISCONSIN REGIONAL WEATHER ROUNDUP
NATIONAL WEATHER SERVICE MILWAUKEE/SULLIVAN WI
1100 PM CDT FRI AUG 29 2014

NOTE: "FAIR" INDICATES FEW OR NO CLOUDS BELOW 12,000 FEET WITH NO
SIGNIFICANT WEATHER AND/OR OBSTRUCTIONS TO VISIBILITY.

WIZ001-002-006>008-014>016-023>028-300500-
NORTHWEST WISCONSIN

CITY           SKY/WX    TMP DP  RH WIND       PRES   REMARKS
SUPERIOR ARPT  CLOUDY    61  61  99 CALM      29.79F FOG
ASHLAND        CLOUDY    66  65  96 CALM      29.79S FOG
HAYWARD        LGT RAIN  65  64  97 CALM      29.80R
SIREN          CLOUDY    67  66  97 CALM      29.79S FOG
RICE LAKE      LGT RAIN  65  63  94 CALM      29.81F
LADYSMITH      LGT RAIN  66  64  96 CALM      29.82F
EAU CLAIRE     NOT AVBL
MENOMONIE      LGT RAIN  68  67  98 CALM      29.80S
NEW RICHMOND   LGT RAIN  65  65  99 E5        29.78F
OSCEOLA        LGT RAIN  68  68 100 CALM      29.81R
$$

WIZ003>005-009-010-017-018-300500-
NORTH CENTRAL WISCONSIN

CITY           SKY/WX    TMP DP  RH WIND       PRES   REMARKS
WOODRUFF       CLOUDY    64  63  94 CALM      29.84S
RHINELANDER    LGT RAIN  64  63  96 SW3       29.85R FOG
EAGLE RIVER    LGT RAIN  63  63 100 CALM      29.84R
LAND O LAKES   CLOUDY    64  63  98 S3        29.84R
PHILLIPS       RAIN      64  64  99 CALM      29.81S
TOMAHAWK       RAIN      64  63  96 CALM      29.85R
MEDFORD        CLOUDY    63  63  99 S7        29.83F
MERRILL        LGT RAIN  65  65 100 CALM      29.84R
$$

WIZ029-030-035-036-043>047-300500-
CENTRAL WISCONSIN

CITY           SKY/WX    TMP DP  RH WIND       PRES   REMARKS
WAUSAU         LGT RAIN  66  65  96 CALM      29.82F
MOSINEE        LGT RAIN  64  64 100 E6        29.84F
MARSHFIELD     LGT RAIN  67  65  93 CALM      29.81S
STEVENS POINT  LGT RAIN  66  63  92 CALM      29.82F
WAUPACA        CLOUDY    74  72  91 CALM      29.80F
WAUTOMA        NOT AVBL
WISC RAPIDS    CLOUDY    67  67 100 W3        29.80F
CAMP DOUGLAS   CLOUDY    68  68 100 NW5       29.81R
$$

WIZ011>013-019>022-031-037>040-048>050-300500-
NORTHEAST WISCONSIN

CITY           SKY/WX    TMP DP  RH WIND       PRES   REMARKS
ANTIGO         LGT RAIN  65  64  97 CALM      29.86R
STURGEON BAY   MOCLDY    70  66  88 S13       29.83F
GREEN BAY      PTCLDY    73  71  93 S7        29.81F FOG
MANITOWOC      NOT AVBL
APPLETON       MOCLDY    73  72  94 S8        29.82S
CLINTONVILLE   MOCLDY    72  70  94 NE5       29.81S
OSHKOSH        MOCLDY    74  71  91 S10       29.81F
$$

WIZ032>034-041-042-053>061-300500-
SOUTHWEST WISCONSIN

CITY           SKY/WX    TMP DP  RH WIND       PRES   REMARKS
LA CROSSE      CLOUDY    70  67  90 E9        29.77F
SPARTA         HVY RAIN  68  66  95 NW5       29.81F
VIROQUA        CLOUDY    67  67 100 E3        29.80F
BOSCOBEL       LGT RAIN  71  67  87 SW6       29.79R
PRAIRIE DU CHI NOT AVBL
PLATTEVILLE    FAIR      72  71  95 CALM      29.82S
$$

WIZ056-057-062-063-064-067-068-300500-
SOUTH CENTRAL WISCONSIN

CITY           SKY/WX    TMP DP  RH WIND       PRES   REMARKS
BARABOO/DELLS  CLOUDY    75  68  79 SE7       29.79F
LONE ROCK      TSTM      75  70  83 SW13      29.82R
WATERTOWN      CLOUDY    74  70  87 SE9       29.83F
MADISON        CLOUDY    77  68  73 S13       29.81F
MIDDLETON      FAIR      78  67  69 S13       29.82S HX  80
MONROE         CLOUDY    72  64  78 S9        29.83S
JANESVILLE     CLOUDY    72  63  73 SE8       29.84S
$$

WIZ051-052-058>065-066-070>072-300500-
SOUTHEAST WISCONSIN

CITY           SKY/WX    TMP DP  RH WIND       PRES   REMARKS
MILWAUKEE      CLOUDY    76  69  79 S13       29.87S THUNDER
WAUKESHA       LGT RAIN  70  64  83 W3        29.87S
MILWAUKEE/TIMM RAIN      73  68  83 S8        29.87R
RACINE         CLOUDY    74  69  85 S13       29.88F
BURLINGTON     CLOUDY    69  66  90 S3        29.87F
KENOSHA        CLOUDY    75  71  87 SW7       29.87F
FOND DU LAC    MOCLDY    75  70  84 S13       29.83S
SHEBOYGAN      PTCLDY    72  70  93 S8        29.85S FOG
WEST BEND      MOCLDY    72  68  88 S7        29.86R
JUNEAU         MOCLDY    74  70  88 SE8       29.85S
$$

LSZ147-162-300500-
LAKE SUPERIOR

STATION/POSITION TIME  TEMP    WIND        PRES    WAVE
                       AIR SEA DIR/SP/G            HT/PER
                 (UTC) (F)     (DEG/KT/KT) (MB)    (FT/S)
W MID LAKE BUOY  0250   62 57  280/  6/  6 1008.2S   0
DEVILS ISLAND    0300   60      10/  9/  9 1008.7R
PORT WING        0300   62      10/  9/ 10 1009.1
SAXON HARBOR     0300   66      CALM  /  1 1008.5R
$$

LMZ867-665-643>646-300500-
LAKE MICHIGAN

STATION/POSITION TIME  TEMP    WIND        PRES    WAVE
                       AIR SEA DIR/SP/G            HT/PER
                 (UTC) (F)     (DEG/KT/KT) (MB)    (FT/S)
N MID LAKE BUOY  0250   69 65  190/ 17/ 19 1010.1R   5/ 6
NORTHPORT PIER   0300   70     160/ 10/ 18 1010.2F
SISTER BAY       0256   70     160/ 20/ 26   N/A
KEWAUNEE LAKESHO 0300   65     180/ 10/ 12 1009.9R
SHEBOYGAN LAKESH 0300   68 63  170/ 15/ 16 1010.8F
ATWATER BUOY     0300   71     170/ 14/ 16 1012.4R
MILWAUKEE LAKESH 0300   71     160/ 10/ 12   N/A
S MID LAKE BUOY  0250   72 69  150/ 16/ 19 1012.4R   2/ 4
KENOSHA   LAKESH 0300   72     170/ 18/ 21 1011.5R
$$

TC  - TEMPERATURE IN CELSIUS
VSB - VISIBILITY IN STATUTE MILES
WCI - WIND CHILL INDEX
HX  - HEAT INDEX




USA.gov is the U.S. government's official web portal to all federal, state and local government web resources and services.